20040107,000013,104235,32.220333,-118.807000,15.445,33.150,NaN,NaN
20040107,000043,104265,32.219500,-118.808500,15.457,33.150,NaN,NaN
20040107,000113,104295,32.218833,-118.810000,15.465,33.149,NaN,NaN
20040107,000143,104325,32.218000,-118.811333,15.465,33.149,NaN,NaN
20040107,000213,104355,32.217333,-118.812833,15.456,33.146,NaN,NaN
20040107,000243,104385,32.216500,-118.814333,15.435,33.142,NaN,NaN
20040107,000313,104415,32.215833,-118.815667,15.412,33.137,NaN,NaN
20040107,000343,104445,32.215000,-118.817167,15.391,33.131,NaN,NaN
20040107,000413,104475,32.214167,-118.818667,15.369,33.126,NaN,NaN
20040107,000443,104505,32.213500,-118.820167,15.348,33.118,NaN,NaN
20040107,000513,104535,32.212667,-118.821500,15.320,33.110,NaN,NaN
20040107,000543,104565,32.212000,-118.823000,15.295,33.100,NaN,NaN
20040107,000613,104595,32.211167,-118.824500,15.275,33.092,NaN,NaN
20040107,000643,104625,32.210500,-118.826000,15.255,33.085,NaN,NaN
20040107,000713,104655,32.209667,-118.827333,15.241,33.081,NaN,NaN
20040107,000743,104685,32.209000,-118.828833,15.232,33.078,NaN,NaN
20040107,000813,104715,32.208333,-118.830333,15.228,33.077,NaN,NaN
20040107,000843,104745,32.207500,-118.831833,15.226,33.076,NaN,NaN
20040107,000913,104775,32.206833,-118.833167,15.223,33.076,NaN,NaN
20040107,000943,104805,32.206167,-118.834667,15.223,33.075,NaN,NaN
20040107,001013,104835,32.205333,-118.836000,15.215,33.075,NaN,NaN
20040107,001043,104865,32.204667,-118.837500,15.206,33.073,NaN,NaN
20040107,001113,104895,32.203833,-118.839000,15.196,33.073,NaN,NaN
20040107,001143,104925,32.203167,-118.840333,15.190,33.072,NaN,NaN
20040107,001213,104955,32.202500,-118.841833,15.193,33.070,NaN,NaN
20040107,001243,104985,32.201667,-118.843333,15.184,33.072,NaN,NaN
20040107,001313,105015,32.201000,-118.844833,15.174,33.073,NaN,NaN
20040107,001343,105045,32.200167,-118.846167,15.178,33.074,NaN,NaN
20040107,001413,105075,32.199500,-118.847667,15.178,33.076,NaN,NaN
20040107,001443,105105,32.198667,-118.849167,15.178,33.076,NaN,NaN
20040107,001513,105135,32.198000,-118.850500,15.187,33.078,NaN,NaN
20040107,001543,105165,32.197167,-118.852000,15.196,33.080,NaN,NaN
20040107,001613,105195,32.196500,-118.853500,15.200,33.082,NaN,NaN
20040107,001643,105225,32.195667,-118.854833,15.206,33.083,NaN,NaN
20040107,001713,105255,32.195000,-118.856333,15.208,33.085,NaN,NaN
20040107,001743,105285,32.194333,-118.857833,15.209,33.090,NaN,NaN
20040107,001813,105315,32.193500,-118.859333,15.237,33.096,NaN,NaN
20040107,001843,105345,32.192833,-118.860667,15.299,33.105,NaN,NaN
20040107,001913,105375,32.192000,-118.862167,15.328,33.124,NaN,NaN
20040107,001943,105405,32.191333,-118.863667,15.333,33.128,NaN,NaN
20040107,002013,105435,32.190500,-118.865167,15.328,33.130,NaN,NaN
20040107,002043,105465,32.189833,-118.866500,15.320,33.130,NaN,NaN
20040107,002113,105495,32.189167,-118.868000,15.314,33.128,NaN,NaN
20040107,002143,105525,32.188333,-118.869500,15.314,33.128,NaN,NaN
20040107,002213,105555,32.187667,-118.871000,15.317,33.128,NaN,NaN
20040107,002243,105585,32.187000,-118.872500,15.320,33.129,NaN,NaN
20040107,002313,105615,32.186333,-118.874000,15.327,33.129,NaN,NaN
20040107,002343,105645,32.185500,-118.875500,15.329,33.130,NaN,NaN
20040107,002413,105675,32.184833,-118.877000,15.332,33.130,NaN,NaN
20040107,002443,105705,32.184167,-118.878333,15.331,33.131,NaN,NaN
20040107,002513,105735,32.183500,-118.879833,15.329,33.131,NaN,NaN
20040107,002543,105765,32.182667,-118.881333,15.328,33.130,NaN,NaN
20040107,002613,105795,32.182000,-118.882833,15.323,33.130,NaN,NaN
20040107,002643,105825,32.181333,-118.884333,15.317,33.131,NaN,NaN
20040107,002713,105855,32.180500,-118.885833,15.318,33.130,NaN,NaN
20040107,002743,105885,32.179833,-118.887333,15.323,33.131,NaN,NaN
20040107,002813,105915,32.179333,-118.888500,15.327,33.132,NaN,NaN
20040107,002843,105945,32.178833,-118.889333,15.329,33.132,NaN,NaN
20040107,002913,105975,32.178500,-118.890167,15.333,33.132,NaN,NaN
20040107,002943,106005,32.178333,-118.890667,15.334,33.133,NaN,NaN
20040107,003013,106035,32.178500,-118.891000,15.335,33.134,NaN,NaN
20040107,003043,106065,32.178500,-118.891333,15.336,33.134,NaN,NaN
20040107,003113,106095,32.178500,-118.891500,15.336,33.134,NaN,NaN
20040107,003143,106125,32.178667,-118.891500,15.336,33.134,NaN,NaN
20040107,003213,106155,32.178667,-118.891500,15.335,33.134,NaN,NaN
20040107,003243,106185,32.178667,-118.891500,15.336,33.133,NaN,NaN
20040107,003313,106215,32.178667,-118.891500,15.336,33.133,NaN,NaN
20040107,003343,106245,32.178667,-118.891500,15.336,33.134,NaN,NaN
20040107,003413,106275,32.178667,-118.891667,15.336,33.134,NaN,NaN
20040107,003443,106305,32.178667,-118.891667,15.339,33.134,NaN,NaN
20040107,003513,106335,32.178500,-118.891667,15.338,33.134,NaN,NaN
20040107,003543,106365,32.178500,-118.891667,15.336,33.134,NaN,NaN
20040107,003613,106395,32.178500,-118.891667,15.337,33.133,NaN,NaN
20040107,003643,106425,32.178333,-118.891667,15.338,33.134,NaN,NaN
20040107,003713,106455,32.178167,-118.891667,15.338,33.134,NaN,NaN
20040107,003743,106485,32.177833,-118.891667,15.338,33.134,NaN,NaN
20040107,003813,106515,32.177833,-118.891667,15.338,33.135,NaN,NaN
20040107,003843,106545,32.177833,-118.891667,15.337,33.134,NaN,NaN
20040107,003913,106575,32.177667,-118.891667,15.338,33.134,NaN,NaN
20040107,003943,106605,32.177500,-118.891667,15.338,33.134,NaN,NaN
20040107,004013,106635,32.177500,-118.891667,15.338,33.134,NaN,NaN
20040107,004043,106665,32.177333,-118.891500,15.339,33.134,NaN,NaN
20040107,004113,106695,32.177333,-118.891500,15.340,33.134,NaN,NaN
20040107,004143,106725,32.177167,-118.891500,15.341,33.134,NaN,NaN
20040107,004213,106755,32.177167,-118.891500,15.340,33.135,NaN,NaN
20040107,004243,106785,32.177167,-118.891500,15.340,33.135,NaN,NaN
20040107,004313,106815,32.177000,-118.891500,15.341,33.135,NaN,NaN
20040107,004343,106845,32.177000,-118.891500,15.343,33.134,NaN,NaN
20040107,004413,106875,32.177000,-118.891500,15.344,33.134,NaN,NaN
20040107,004443,106905,32.177000,-118.891500,15.348,33.135,NaN,NaN
20040107,004513,106935,32.176833,-118.891500,15.351,33.134,NaN,NaN
20040107,004543,106965,32.176833,-118.891500,15.348,33.135,NaN,NaN
20040107,004613,106995,32.176833,-118.891500,15.345,33.135,NaN,NaN
20040107,004643,107025,32.176833,-118.891500,15.341,33.136,NaN,NaN
20040107,004713,107055,32.176667,-118.891500,15.341,33.134,NaN,NaN
20040107,004743,107085,32.176667,-118.891500,15.341,33.134,NaN,NaN
20040107,004813,107115,32.176667,-118.891667,15.340,33.135,NaN,NaN
20040107,004843,107145,32.176500,-118.891667,15.340,33.135,NaN,NaN
20040107,004913,107175,32.176500,-118.891667,15.339,33.134,NaN,NaN
20040107,004943,107205,32.176500,-118.891667,15.340,33.134,NaN,NaN
20040107,005013,107235,32.176500,-118.891667,15.340,33.134,NaN,NaN
20040107,005043,107265,32.176500,-118.891667,15.341,33.134,NaN,NaN
20040107,005113,107295,32.176333,-118.891667,15.342,33.134,NaN,NaN
20040107,005143,107325,32.176333,-118.891667,15.342,33.135,NaN,NaN
20040107,005213,107355,32.176333,-118.891667,15.342,33.135,NaN,NaN
20040107,005243,107385,32.176167,-118.891667,15.342,33.134,NaN,NaN
20040107,005313,107415,32.176167,-118.891500,15.339,33.135,NaN,NaN
20040107,005343,107445,32.176167,-118.891500,15.339,33.134,NaN,NaN
20040107,005413,107475,32.176000,-118.891333,15.339,33.134,NaN,NaN
20040107,005443,107505,32.176000,-118.891333,15.340,33.134,NaN,NaN
20040107,005513,107535,32.176000,-118.891333,15.340,33.134,NaN,NaN
20040107,005543,107565,32.176000,-118.891333,15.339,33.134,NaN,NaN
20040107,005613,107595,32.176000,-118.891167,15.336,33.135,NaN,NaN
20040107,005643,107625,32.176000,-118.891167,15.334,33.135,NaN,NaN
20040107,005713,107655,32.176000,-118.891000,15.334,33.134,NaN,NaN
20040107,005743,107685,32.175833,-118.891000,15.335,33.134,NaN,NaN
20040107,005813,107715,32.175833,-118.890833,15.337,33.134,NaN,NaN
20040107,005843,107745,32.175833,-118.890833,15.337,33.134,NaN,NaN
20040107,005913,107775,32.175833,-118.890833,15.338,33.134,NaN,NaN
20040107,005943,107805,32.175833,-118.890667,15.338,33.134,NaN,NaN
20040107,010013,107835,32.175667,-118.890667,15.336,33.135,NaN,NaN
20040107,010043,107865,32.175667,-118.890667,15.336,33.134,NaN,NaN
20040107,010113,107895,32.175667,-118.890667,15.335,33.134,NaN,NaN
20040107,010143,107925,32.175667,-118.890667,15.330,33.134,NaN,NaN
20040107,010213,107955,32.175667,-118.890667,15.331,33.134,NaN,NaN
20040107,010243,107985,32.175500,-118.890500,15.335,33.134,NaN,NaN
20040107,010313,108015,32.175500,-118.890500,15.337,33.133,NaN,NaN
20040107,010343,108045,32.175500,-118.890500,15.338,33.135,NaN,NaN
20040107,010413,108075,32.175333,-118.890500,15.339,33.134,NaN,NaN
20040107,010443,108105,32.175333,-118.890333,15.338,33.135,NaN,NaN
20040107,010513,108135,32.175333,-118.890333,15.338,33.134,NaN,NaN
20040107,010543,108165,32.175333,-118.890333,15.338,33.134,NaN,NaN
20040107,010613,108195,32.175333,-118.890333,15.340,33.134,NaN,NaN
20040107,010643,108225,32.175167,-118.890167,15.341,33.134,NaN,NaN
20040107,010713,108255,32.175167,-118.890167,15.341,33.134,NaN,NaN
20040107,010743,108285,32.175167,-118.890000,15.338,33.134,NaN,NaN
20040107,010813,108315,32.175167,-118.890000,15.338,33.134,NaN,NaN
20040107,010843,108345,32.175167,-118.890000,15.337,33.134,NaN,NaN
20040107,010913,108375,32.175167,-118.889833,15.336,33.135,NaN,NaN
20040107,010943,108405,32.175000,-118.889833,15.334,33.134,NaN,NaN
20040107,011013,108435,32.175000,-118.889833,15.333,33.134,NaN,NaN
20040107,011043,108465,32.175000,-118.889667,15.333,33.134,NaN,NaN
20040107,011113,108495,32.175000,-118.889667,15.333,33.134,NaN,NaN
20040107,011143,108525,32.175000,-118.889500,15.334,33.134,NaN,NaN
20040107,011213,108555,32.175167,-118.889500,15.334,33.134,NaN,NaN
20040107,011243,108585,32.175167,-118.889333,15.334,33.134,NaN,NaN
20040107,011313,108615,32.175167,-118.889333,15.333,33.134,NaN,NaN
20040107,011343,108645,32.175167,-118.889333,15.334,33.133,NaN,NaN
20040107,011413,108675,32.175167,-118.889333,15.334,33.134,NaN,NaN
20040107,011443,108705,32.175167,-118.889167,15.334,33.134,NaN,NaN
20040107,011513,108735,32.175167,-118.889167,15.334,33.133,NaN,NaN
20040107,011543,108765,32.175000,-118.889167,15.333,33.133,NaN,NaN
20040107,011613,108795,32.175000,-118.889167,15.330,33.134,NaN,NaN
20040107,011643,108825,32.175000,-118.889000,15.329,33.134,NaN,NaN
20040107,011713,108855,32.175000,-118.889000,15.330,33.133,NaN,NaN
20040107,011743,108885,32.175000,-118.889000,15.329,33.134,NaN,NaN
20040107,011813,108915,32.175000,-118.889000,15.329,33.134,NaN,NaN
20040107,011843,108945,32.175000,-118.888833,15.330,33.133,NaN,NaN
20040107,011913,108975,32.174833,-118.888833,15.329,33.134,NaN,NaN
20040107,011943,109005,32.174833,-118.888833,15.330,33.134,NaN,NaN
20040107,012013,109035,32.174833,-118.888833,15.329,33.133,NaN,NaN
20040107,012043,109065,32.174833,-118.888667,15.329,33.134,NaN,NaN
20040107,012113,109095,32.174833,-118.888667,15.328,33.133,NaN,NaN
20040107,012143,109125,32.174667,-118.888667,15.329,33.134,NaN,NaN
20040107,012213,109155,32.174667,-118.888667,15.327,33.134,NaN,NaN
20040107,012243,109185,32.174667,-118.888500,15.325,33.134,NaN,NaN
20040107,012313,109215,32.174667,-118.888500,15.325,33.134,NaN,NaN
20040107,012343,109245,32.174500,-118.888500,15.325,33.134,NaN,NaN
20040107,012413,109275,32.174500,-118.888333,15.323,33.134,NaN,NaN
20040107,012443,109305,32.174333,-118.888333,15.322,33.135,NaN,NaN
20040107,012513,109335,32.174333,-118.888167,15.323,33.134,NaN,NaN
20040107,012543,109365,32.174333,-118.888000,15.322,33.133,NaN,NaN
20040107,012613,109395,32.174167,-118.888000,15.322,33.134,NaN,NaN
20040107,012643,109425,32.174167,-118.888000,15.323,33.134,NaN,NaN
20040107,012713,109455,32.174167,-118.887833,15.323,33.134,NaN,NaN
20040107,012743,109485,32.174167,-118.887833,15.323,33.134,NaN,NaN
20040107,012813,109515,32.174167,-118.887833,15.324,33.134,NaN,NaN
20040107,012843,109545,32.174000,-118.887833,15.325,33.134,NaN,NaN
20040107,012913,109575,32.174000,-118.887667,15.324,33.134,NaN,NaN
20040107,012943,109605,32.174000,-118.887667,15.326,33.134,NaN,NaN
20040107,013013,109635,32.173833,-118.887667,15.323,33.134,NaN,NaN
20040107,013043,109665,32.173667,-118.887833,15.323,33.134,NaN,NaN
20040107,013113,109695,32.173667,-118.888000,15.323,33.135,NaN,NaN
20040107,013143,109725,32.173667,-118.888333,15.324,33.134,NaN,NaN
20040107,013213,109755,32.173500,-118.888500,15.326,33.134,NaN,NaN
20040107,013243,109785,32.173500,-118.888667,15.326,33.134,NaN,NaN
20040107,013313,109815,32.173500,-118.888833,15.328,33.134,NaN,NaN
20040107,013343,109845,32.173667,-118.889167,15.330,33.134,NaN,NaN
20040107,013413,109875,32.173667,-118.889333,15.331,33.135,NaN,NaN
20040107,013443,109905,32.173667,-118.889500,15.328,33.134,NaN,NaN
20040107,013513,109935,32.173667,-118.889667,15.328,33.135,NaN,NaN
20040107,013543,109965,32.173667,-118.889833,15.331,33.134,NaN,NaN
20040107,013613,109995,32.173667,-118.890167,15.333,33.135,NaN,NaN
20040107,013643,110025,32.173667,-118.890333,15.332,33.134,NaN,NaN
20040107,013713,110055,32.173667,-118.890500,15.333,33.135,NaN,NaN
20040107,013743,110085,32.173667,-118.890667,15.335,33.135,NaN,NaN
20040107,013813,110115,32.173667,-118.891000,15.335,33.135,NaN,NaN
20040107,013843,110145,32.173833,-118.891167,15.335,33.135,NaN,NaN
20040107,013913,110175,32.173833,-118.891333,15.334,33.135,NaN,NaN
20040107,013943,110205,32.173833,-118.891667,15.333,33.135,NaN,NaN
20040107,014013,110235,32.173833,-118.891833,15.333,33.136,NaN,NaN
20040107,014043,110265,32.173667,-118.892000,15.331,33.135,NaN,NaN
20040107,014113,110295,32.173667,-118.892333,15.327,33.135,NaN,NaN
20040107,014143,110325,32.173667,-118.892500,15.327,33.133,NaN,NaN
20040107,014213,110355,32.173667,-118.892667,15.331,33.134,NaN,NaN
20040107,014243,110385,32.173667,-118.892833,15.332,33.135,NaN,NaN
20040107,014313,110415,32.173667,-118.893000,15.331,33.134,NaN,NaN
20040107,014343,110445,32.173667,-118.893333,15.324,33.135,NaN,NaN
20040107,014413,110475,32.173500,-118.893500,15.315,33.134,NaN,NaN
20040107,014443,110505,32.173500,-118.893667,15.312,33.131,NaN,NaN
20040107,014513,110535,32.173500,-118.893833,15.307,33.132,NaN,NaN
20040107,014543,110565,32.173500,-118.894167,15.294,33.131,NaN,NaN
20040107,014613,110595,32.173500,-118.894333,15.286,33.125,NaN,NaN
20040107,014643,110625,32.173500,-118.894500,15.279,33.125,NaN,NaN
20040107,014713,110655,32.173333,-118.894667,15.271,33.122,NaN,NaN
20040107,014743,110685,32.173333,-118.895000,15.261,33.121,NaN,NaN
20040107,014813,110715,32.173167,-118.895167,15.254,33.119,NaN,NaN
20040107,014843,110745,32.173000,-118.895500,15.254,33.118,NaN,NaN
20040107,014913,110775,32.172833,-118.895667,15.253,33.117,NaN,NaN
20040107,014943,110805,32.172667,-118.895833,15.250,33.118,NaN,NaN
20040107,015013,110835,32.172333,-118.896167,15.249,33.117,NaN,NaN
20040107,015043,110865,32.172167,-118.896333,15.250,33.115,NaN,NaN
20040107,015113,110895,32.171833,-118.896500,15.251,33.114,NaN,NaN
20040107,015143,110925,32.171667,-118.896667,15.254,33.113,NaN,NaN
20040107,015213,110955,32.171333,-118.896833,15.257,33.113,NaN,NaN
20040107,015243,110985,32.171167,-118.897000,15.255,33.113,NaN,NaN
20040107,015313,111015,32.171000,-118.897167,15.256,33.111,NaN,NaN
20040107,015343,111045,32.170833,-118.897167,15.255,33.111,NaN,NaN
20040107,015413,111075,32.170833,-118.897500,15.254,33.111,NaN,NaN
20040107,015443,111105,32.170667,-118.897667,15.257,33.111,NaN,NaN
20040107,015513,111135,32.170500,-118.897833,15.258,33.113,NaN,NaN
20040107,015543,111165,32.170500,-118.898000,15.261,33.111,NaN,NaN
20040107,015613,111195,32.170333,-118.898167,15.259,33.112,NaN,NaN
20040107,015643,111225,32.170333,-118.898167,15.255,33.112,NaN,NaN
20040107,015713,111255,32.170167,-118.898333,15.261,33.112,NaN,NaN
20040107,015743,111285,32.170000,-118.898500,15.266,33.114,NaN,NaN
20040107,015813,111315,32.170000,-118.898667,15.270,33.115,NaN,NaN
20040107,015843,111345,32.169833,-118.898833,15.274,33.115,NaN,NaN
20040107,015913,111375,32.169833,-118.899000,15.281,33.117,NaN,NaN
20040107,015943,111405,32.169667,-118.899167,15.279,33.117,NaN,NaN
20040107,020013,111435,32.169500,-118.899333,15.284,33.117,NaN,NaN
20040107,020043,111465,32.169333,-118.899500,15.286,33.118,NaN,NaN
20040107,020113,111495,32.169167,-118.899667,15.285,33.118,NaN,NaN
20040107,020143,111525,32.169000,-118.899667,15.284,33.118,NaN,NaN
20040107,020213,111555,32.169000,-118.899833,15.285,33.118,NaN,NaN
20040107,020243,111585,32.168833,-118.900000,15.296,33.120,NaN,NaN
20040107,020313,111615,32.168667,-118.900167,15.313,33.125,NaN,NaN
20040107,020343,111645,32.168500,-118.900333,15.326,33.129,NaN,NaN
20040107,020413,111675,32.168333,-118.900500,15.331,33.133,NaN,NaN
20040107,020443,111705,32.168333,-118.900667,15.336,33.135,NaN,NaN
20040107,020513,111735,32.168167,-118.900833,15.341,33.136,NaN,NaN
20040107,020543,111765,32.168000,-118.901000,15.345,33.136,NaN,NaN
20040107,020613,111795,32.168000,-118.901167,15.351,33.137,NaN,NaN
20040107,020643,111825,32.167833,-118.901333,15.353,33.138,NaN,NaN
20040107,020713,111855,32.167667,-118.901500,15.355,33.139,NaN,NaN
20040107,020743,111885,32.167667,-118.901667,15.356,33.139,NaN,NaN
20040107,020813,111915,32.167500,-118.901833,15.359,33.139,NaN,NaN
20040107,020843,111945,32.167333,-118.902000,15.359,33.140,NaN,NaN
20040107,020913,111975,32.167333,-118.902167,15.360,33.140,NaN,NaN
20040107,020943,112005,32.167167,-118.902500,15.360,33.141,NaN,NaN
20040107,021013,112035,32.167167,-118.902667,15.360,33.142,NaN,NaN
20040107,021043,112065,32.167167,-118.902833,15.361,33.140,NaN,NaN
20040107,021113,112095,32.167000,-118.903167,15.359,33.142,NaN,NaN
20040107,021143,112125,32.167000,-118.903333,15.360,33.141,NaN,NaN
20040107,021213,112155,32.166833,-118.903500,15.361,33.141,NaN,NaN
20040107,021243,112185,32.166833,-118.903667,15.360,33.142,NaN,NaN
20040107,021313,112215,32.166833,-118.904000,15.360,33.142,NaN,NaN
20040107,021343,112245,32.166667,-118.904167,15.359,33.143,NaN,NaN
20040107,021413,112275,32.166667,-118.904333,15.358,33.143,NaN,NaN
20040107,021443,112305,32.166500,-118.904500,15.357,33.143,NaN,NaN
20040107,021513,112335,32.166333,-118.904667,15.357,33.144,NaN,NaN
20040107,021543,112365,32.166167,-118.904833,15.358,33.143,NaN,NaN
20040107,021613,112395,32.166000,-118.905167,15.357,33.145,NaN,NaN
20040107,021643,112425,32.165833,-118.905333,15.359,33.144,NaN,NaN
20040107,021713,112455,32.165667,-118.905667,15.362,33.144,NaN,NaN
20040107,021743,112485,32.165500,-118.905833,15.363,33.145,NaN,NaN
20040107,021813,112515,32.165333,-118.906333,15.365,33.145,NaN,NaN
20040107,021843,112545,32.165000,-118.906833,15.369,33.146,NaN,NaN
20040107,021913,112575,32.164667,-118.907500,15.374,33.147,NaN,NaN
20040107,021943,112605,32.164167,-118.908333,15.379,33.147,NaN,NaN
20040107,022013,112635,32.163667,-118.909167,15.383,33.148,NaN,NaN
20040107,022043,112665,32.163167,-118.910000,15.389,33.149,NaN,NaN
20040107,022113,112695,32.162667,-118.911167,15.393,33.150,NaN,NaN
20040107,022143,112725,32.162167,-118.912333,15.396,33.151,NaN,NaN
20040107,022213,112755,32.161667,-118.913500,15.399,33.152,NaN,NaN
20040107,022243,112785,32.161000,-118.914833,15.402,33.153,NaN,NaN
20040107,022313,112815,32.160500,-118.916167,15.408,33.153,NaN,NaN
20040107,022343,112845,32.159833,-118.917500,15.412,33.155,NaN,NaN
20040107,022413,112875,32.159167,-118.919000,15.419,33.155,NaN,NaN
20040107,022443,112905,32.158500,-118.920500,15.426,33.156,NaN,NaN
20040107,022513,112935,32.157833,-118.921833,15.429,33.159,NaN,NaN
20040107,022543,112965,32.157167,-118.923333,15.433,33.158,NaN,NaN
20040107,022613,112995,32.156667,-118.924833,15.433,33.159,NaN,NaN
20040107,022643,113025,32.156000,-118.926167,15.432,33.157,NaN,NaN
20040107,022713,113055,32.155333,-118.927667,15.428,33.155,NaN,NaN
20040107,022743,113085,32.154667,-118.929167,15.423,33.154,NaN,NaN
20040107,022813,113115,32.154000,-118.930500,15.413,33.152,NaN,NaN
20040107,022843,113145,32.153333,-118.932000,15.400,33.149,NaN,NaN
20040107,022913,113175,32.152667,-118.933500,15.395,33.146,NaN,NaN
20040107,022943,113205,32.152000,-118.934833,15.391,33.144,NaN,NaN
20040107,023013,113235,32.151333,-118.936333,15.390,33.142,NaN,NaN
20040107,023043,113265,32.150667,-118.937833,15.391,33.141,NaN,NaN
20040107,023113,113295,32.150000,-118.939167,15.392,33.141,NaN,NaN
20040107,023143,113325,32.149333,-118.940667,15.392,33.141,NaN,NaN
20040107,023213,113355,32.148667,-118.942167,15.392,33.140,NaN,NaN
20040107,023243,113385,32.148000,-118.943667,15.392,33.140,NaN,NaN
20040107,023313,113415,32.147333,-118.945000,15.392,33.140,NaN,NaN
20040107,023343,113445,32.146667,-118.946500,15.393,33.139,NaN,NaN
20040107,023413,113475,32.146000,-118.948000,15.392,33.139,NaN,NaN
20040107,023443,113505,32.145333,-118.949333,15.391,33.138,NaN,NaN
20040107,023513,113535,32.144667,-118.950833,15.389,33.138,NaN,NaN
20040107,023543,113565,32.144000,-118.952333,15.390,33.137,NaN,NaN
20040107,023613,113595,32.143333,-118.953667,15.389,33.138,NaN,NaN
20040107,023643,113625,32.142667,-118.955167,15.383,33.137,NaN,NaN
20040107,023713,113655,32.142000,-118.956667,15.377,33.136,NaN,NaN
20040107,023743,113685,32.141333,-118.958000,15.375,33.136,NaN,NaN
20040107,023813,113715,32.140667,-118.959500,15.375,33.137,NaN,NaN
20040107,023843,113745,32.140000,-118.961000,15.377,33.138,NaN,NaN
20040107,023913,113775,32.139333,-118.962333,15.380,33.138,NaN,NaN
20040107,023943,113805,32.138667,-118.963833,15.383,33.138,NaN,NaN
20040107,024013,113835,32.138000,-118.965333,15.383,33.138,NaN,NaN
20040107,024043,113865,32.137333,-118.966667,15.381,33.138,NaN,NaN
20040107,024113,113895,32.136667,-118.968167,15.380,33.137,NaN,NaN
20040107,024143,113925,32.136000,-118.969667,15.378,33.135,NaN,NaN
20040107,024213,113955,32.135333,-118.971167,15.377,33.134,NaN,NaN
20040107,024243,113985,32.134667,-118.972500,15.376,33.134,NaN,NaN
20040107,024313,114015,32.134000,-118.974000,15.375,33.133,NaN,NaN
20040107,024343,114045,32.133333,-118.975500,15.375,33.131,NaN,NaN
20040107,024413,114075,32.132667,-118.977000,15.375,33.131,NaN,NaN
20040107,024443,114105,32.132000,-118.978500,15.379,33.132,NaN,NaN
20040107,024513,114135,32.131333,-118.979833,15.390,33.133,NaN,NaN
20040107,024543,114165,32.130667,-118.981333,15.408,33.138,NaN,NaN
20040107,024613,114195,32.130000,-118.982833,15.419,33.142,NaN,NaN
20040107,024643,114225,32.129333,-118.984167,15.423,33.144,NaN,NaN
20040107,024713,114255,32.128667,-118.985667,15.426,33.145,NaN,NaN
20040107,024743,114285,32.128000,-118.987167,15.427,33.145,NaN,NaN
20040107,024813,114315,32.127333,-118.988667,15.426,33.145,NaN,NaN
20040107,024843,114345,32.126667,-118.990000,15.424,33.146,NaN,NaN
20040107,024913,114375,32.126000,-118.991500,15.426,33.144,NaN,NaN
20040107,024943,114405,32.125333,-118.993000,15.427,33.145,NaN,NaN
20040107,025013,114435,32.124667,-118.994500,15.428,33.144,NaN,NaN
20040107,025043,114465,32.124000,-118.995833,15.427,33.145,NaN,NaN
20040107,025113,114495,32.123333,-118.997333,15.424,33.145,NaN,NaN
20040107,025143,114525,32.122667,-118.998833,15.423,33.144,NaN,NaN
20040107,025213,114555,32.122000,-119.000333,15.422,33.144,NaN,NaN
20040107,025243,114585,32.121333,-119.001667,15.413,33.145,NaN,NaN
20040107,025313,114615,32.120667,-119.003167,15.380,33.139,NaN,NaN
20040107,025343,114645,32.120000,-119.004667,15.325,33.126,NaN,NaN
20040107,025413,114675,32.119500,-119.006167,15.262,33.108,NaN,NaN
20040107,025443,114705,32.118833,-119.007667,15.200,33.096,NaN,NaN
20040107,025513,114735,32.118167,-119.009000,15.145,33.075,NaN,NaN
20040107,025543,114765,32.117500,-119.010500,15.107,33.066,NaN,NaN